Alberto Luccato

ASSINDUSTRIA SPORT PADOVA
20-06-1985


Informazioni sul tesseramento aggiornate al 2019


Condividi con
Seguici su:


150 metri

Anno Data Tipo Cr. Cat. Piazz. Prestaz. Vento Città  
201017/04PESM1 se- 4 17.84+0.0Copparo
 

400 METRI

Anno Data Tipo Cr. Cat. Piazz. Prestaz. Vento Città  
201001/05PESM3 se- 1 50.45Voltabarozzo
200514/05PEPM4 se- 2 51.02Marcon
 

500 metri

Anno Data Tipo Cr. Cat. Piazz. Prestaz. Vento Città  
201018/04PESM2 se- 1 1:04.30Treviso
 

600 metri

Anno Data Tipo Cr. Cat. Piazz. Prestaz. Vento Città  
201027/03PMSM1 se- 1 1:21.8Rovigo
 

800 metri

Anno Data Tipo Cr. Cat. Piazz. Prestaz. Vento Città  
200707/07PEPM7 se- 1 1:50.62Pergine
200522/07PEPM1 se- 2 1:51.07Pergine Valsugana
200526/07PMPM1 se- 1 1:51.1Trento
201027/07PESM2 su- 1 1:51.23Trento
200702/06PEPM4 se- 2 1:51.54Trento
200708/07PEPM8 se- 2 1:51.56Padova
201003/09PESM12 se- 1 1:52.00Padova
200929/09PESM1 se- 1 1:52.01Fidenza
200504/06PEPM1 su- 1 1:52.18Grosseto
200927/09PESM1 se- 2 1:52.29Caorle
200515/06PEPM2 se- 1 1:52.32Mestre
200716/06PEPM2 su- 1 1:52.40Bressanone
200713/05PEPM6 se- 1 1:52.47Pavia
201016/05PESM1 se- 1 1:52.77Marcon
200529/05PEPM1 se- 1 1:53.05Majano
200615/06PEPM3 se- 1 1:53.26Mestre
201026/09PESM5 se- 3 1:53.64Borgo Valsugana
200618/06PEPM3 se- 1 1:53.74Ferrara
200525/06PEPM6 ba- 3 1:54.27Bressanone
200730/09PEPM7 su- 1 1:54.34Palermo
201030/06PESM6 ba- 1 1:54.46Grosseto
200907/02IESM1 se- 3 1:54.47Ancona
200727/07PEPM6 ba- 1 1:54.49Padova
201019/02IESM5 su- 1 1:54.50Ancona
200511/06PEPM3 su- 1 1:54.52Cesenatico
200925/07PESM2 se- 2 1:54.82Pergine Valsugana
201030/01IESM1 se- 1 1:54.92 Ancona
200905/09PESM7 su- 1 1:55.26Chiuro
200522/05PEPM2 se- 2 1:55.34Trento
201329/09PESM12 su- 1 1:55.49Rieti
201330/07PESM1 se- 3 1:55.51Trento
200922/02IESM4 ba- 1 1:55.90Torino
200912/07PESM3 se- 1 1:56.21Mestre
200629/06PEPM4 se- 1 1:56.26Rosa
201028/02IESM6 ba- 1 1:56.51Ancona
200901/05PESM3 se- 1 1:57.28Palmanova
201415/06PESM1 se- 7 1:58.36Marcon
200928/07PESM9 se- 1 1:58.48Trento
200802/06PESM7 se- 1 1:59.33Marcon
201428/09PESM6 se- 1 1:59.49Milano
200911/06PESM11 se- 1 2:00.10Imola
 

1000 metri

Anno Data Tipo Cr. Cat. Piazz. Prestaz. Vento Città  
200917/10PESM1 se- 1 2:30.20Mestre San Giuliano
200810/05PESM4 se- 1 2:33.25Bologna
201418/10PMSM1 se- 1 2:40.4Rovigo
 

1500 metri

Anno Data Tipo Cr. Cat. Piazz. Prestaz. Vento Città  
201018/07PESM4 se- 1 3:59.64Rovigo
201005/06PESM8 su- 1 4:00.44Firenze
200723/08PEPM8 se- 1 4:00.93Cles
200514/06PEPM5 su- 1 4:01.16Mestre
200701/05PEPM2 se- 1 4:02.09Padova
200709/09PEPM6 se- 1 4:04.02Gorizia
200916/09PESM9 se- 1 4:05.16Faenza
201328/09PESM12 su- 1 4:08.25Rieti
200919/08PMSM6 se- 1 4:13.5Cortina
 

Attenzione: le schede-atleti sono composte automaticamente sulla base dei dati inseriti all'interno degli archivi nazionali aggiornati dal 2005 al 15-10-2019. Se un risultato non compare nelle graduatorie, quindi, è segno che lo stesso, con ogni probabilità, non è stato ancora inserito. Il processo di inserimento è di competenza dei Comitati Regionali sul cui territorio ha avuto luogo la manifestazione: eventuali segnalazioni per errori od omissioni, vanno dunque indirizzate agli stessi (potete utilizzare l'elenco con relativi contatti). Considerato però che solo le principali manifestazioni nazionali sono oggetto di inserimenti "in diretta" (sul posto di gara), mentre le altre, incluse le internazionali in programma all'estero, vengono inserite in tempi successivi, è opportuno attendere un ragionevole lasso di tempo prima di procedere ad una segnalazione.

Stickers


Non ventosi

GaraTipoPrestazioneVentoAnnoCittà
150 metriPista 17.84+0.02010Copparo
400 METRIPista 50.452010Voltabarozzo
500 metriPista 1:04.302010Treviso
600 metriPista 1:21.82010Rovigo
800 metriPista 1:50.622007Pergine
800 metriIndoor 1:54.472009Ancona
1000 metriPista 2:30.202009Mestre San Giuliano
1500 metriPista 3:59.642010Rovigo

AnnoTipo mov.CategoriaSocietà
2019NuovoSeniores MaschileASSINDUSTRIA SPORT PADOVA
2015TrasferimentoSeniores MaschileATL. ARZERGRANDE
2014RinnovoSeniores MaschileASSINDUSTRIA SPORT PADOVA
2013NuovoSeniores MaschileASSINDUSTRIA SPORT PADOVA
2010RinnovoSeniores MaschileASSINDUSTRIA SPORT PADOVA
2009RinnovoSeniores MaschileASSINDUSTRIA SPORT PADOVA
2008RinnovoSeniores MaschileASSINDUSTRIA SPORT PADOVA
2007RinnovoPromesse MaschileASSINDUSTRIA SPORT PADOVA
2006RinnovoPromesse MaschileASSINDUSTRIA SPORT PADOVA
2005RinnovoPromesse MaschileASSINDUSTRIA SPORT PD
2004RinnovoJuniores MaschileASSINDUSTRIA SPORT PD
2003RinnovoJuniores MaschileASSINDUSTRIA SPORT PD
2002RinnovoAllieviASSINDUSTRIA SPORT PD S.R.L.
2001TrasferimentoAllieviASSINDUSTRIA SPORT PD S.R.L.
2000RinnovoCadettiPOL.LIB.BORGOFORTE ARZERGRANDE
1999RinnovoCadettiPOL.LIB.BORGOFORTE ARZERGRANDE
1998RinnovoRagazzi MaschilePOL.LIB.BORGOFORTE Y.A.ARZERGR